When you browse on this site, cookies collect data to enhance your experience and personalize the content and advertising you see.
Visit our Privacy Policy to learn more. By continuing to use the site, you agree to this use of cookies and data.
  • In United Kingdom
  • List of Countries
  • For 7 days
  • Water Temperature
  • Weather Map
  • Weather Widgets
  • user-avatar
    Login

    Hourly Weather Amritsar

    Today, 2 April, Thursday

    Time Temperature Precipitation Wind Pressure Humidity
    00:00 +21°C° 0 mm 1 mps 738 mmHg 58%
    01:00 +21°C° 0 mm 1 mps 738 mmHg 57%
    02:00 +21°C° 0 mm 1 mps 737 mmHg 55%
    03:00 +20°C° 0 mm 1 mps 737 mmHg 58%
    04:00 +19°C° 0 mm 1 mps 737 mmHg 62%
    05:00 +19°C° 0 mm 1 mps 737 mmHg 65%
    06:00 +20°C° 0 mm 1 mps 737 mmHg 60%
    07:00 +22°C° 0 mm 1 mps 738 mmHg 54%
    08:00 +23°C° 0 mm 1 mps 738 mmHg 49%
    09:00 +25°C° 0 mm 1 mps 739 mmHg 42%
    10:00 +28°C° 0 mm 1 mps 739 mmHg 35%
    11:00 +30°C° 0 mm 1 mps 739 mmHg 28%
    12:00 +31°C° 0 mm 1 mps 739 mmHg 24%
    13:00 +31°C° 0 mm 2 mps 738 mmHg 21%
    14:00 +32°C° 0 mm 2 mps 738 mmHg 17%
    15:00 +31°C° 0 mm 3 mps 737 mmHg 19%
    16:00 +30°C° 0 mm 3 mps 737 mmHg 21%
    17:00 +30°C° 0 mm 3 mps 737 mmHg 23%
    18:00 +27°C° 0 mm 3 mps 737 mmHg 30%
    19:00 +25°C° 0 mm 3 mps 738 mmHg 38%
    20:00 +21°C° 0 mm 3 mps 738 mmHg 45%
    21:00 +20°C° 0 mm 3 mps 738 mmHg 46%
    22:00 +20°C° 0 mm 2 mps 739 mmHg 47%
    23:00 +19°C° 0 mm 2 mps 739 mmHg 48%

    Tomorrow, 3 April, Friday

    Time Temperature Precipitation Wind Pressure Humidity
    00:00 +18°C° 0 mm 2 mps 738 mmHg 50%
    01:00 +18°C° 0 mm 2 mps 738 mmHg 52%
    02:00 +17°C° 0 mm 2 mps 738 mmHg 54%
    03:00 +18°C° 0 mm 1 mps 738 mmHg 56%
    04:00 +16°C° 0 mm 1 mps 737 mmHg 58%
    05:00 +16°C° 0 mm 1 mps 737 mmHg 60%
    06:00 +19°C° 0 mm 1 mps 738 mmHg 54%
    07:00 +21°C° 0 mm 1 mps 738 mmHg 49%
    08:00 +23°C° 0 mm 1 mps 739 mmHg 44%
    09:00 +25°C° 0 mm 2 mps 739 mmHg 38%
    10:00 +27°C° 0 mm 2 mps 739 mmHg 32%
    11:00 +30°C° 0 mm 3 mps 739 mmHg 26%
    12:00 +31°C° 0 mm 3 mps 739 mmHg 23%
    13:00 +33°C° 0 mm 3 mps 738 mmHg 21%
    14:00 +33°C° 0 mm 3 mps 738 mmHg 19%
    15:00 +33°C° 0 mm 3 mps 738 mmHg 20%
    16:00 +31°C° 0 mm 3 mps 737 mmHg 22%
    17:00 +31°C° 0 mm 3 mps 737 mmHg 23%
    18:00 +28°C° 0 mm 3 mps 738 mmHg 28%
    19:00 +26°C° 0 mm 2 mps 738 mmHg 33%
    20:00 +23°C° 0 mm 2 mps 738 mmHg 37%
    21:00 +22°C° 0 mm 1 mps 738 mmHg 38%
    22:00 +22°C° 0 mm 1 mps 739 mmHg 39%
    23:00 +21°C° 0 mm 1 mps 739 mmHg 40%

    Day after tomorrow, 4 April, Saturday

    Time Temperature Precipitation Wind Pressure Humidity
    00:00 +20°C° 0 mm 1 mps 738 mmHg 42%
    01:00 +20°C° 0 mm 1 mps 738 mmHg 44%
    02:00 +19°C° 0 mm 1 mps 738 mmHg 46%
    03:00 +19°C° 0 mm 1 mps 738 mmHg 47%
    04:00 +18°C° 0 mm 1 mps 738 mmHg 48%
    05:00 +18°C° 0 mm 1 mps 737 mmHg 49%
    06:00 +20°C° 0 mm 1 mps 738 mmHg 44%
    07:00 +22°C° 0 mm 1 mps 739 mmHg 40%
    08:00 +24°C° 0 mm 1 mps 739 mmHg 35%
    09:00 +27°C° 0 mm 2 mps 739 mmHg 30%
    10:00 +29°C° 0 mm 2 mps 739 mmHg 25%
    11:00 +33°C° 0 mm 3 mps 739 mmHg 19%
    12:00 +34°C° 0 mm 3 mps 739 mmHg 18%
    13:00 +35°C° 0 mm 4 mps 738 mmHg 17%
    14:00 +35°C° 0 mm 4 mps 738 mmHg 15%
    15:00 +35°C° 0 mm 4 mps 737 mmHg 16%
    16:00 +34°C° 0 mm 4 mps 737 mmHg 18%
    17:00 +33°C° 0 mm 4 mps 737 mmHg 19%
    18:00 +30°C° 0 mm 3 mps 737 mmHg 24%
    19:00 +27°C° 0 mm 2 mps 737 mmHg 28%
    20:00 +24°C° 0 mm 2 mps 738 mmHg 33%
    21:00 +23°C° 0 mm 1 mps 738 mmHg 34%
    22:00 +23°C° 0 mm 1 mps 738 mmHg 35%
    23:00 +22°C° 0 mm 1 mps 738 mmHg 36%

    5 April, Sunday

    Time Temperature Precipitation Wind Pressure Humidity
    00:00 +22°C° 0 mm 1 mps 738 mmHg 36%
    01:00 +22°C° 0 mm 1 mps 737 mmHg 37%
    02:00 +20°C° 0 mm 2 mps 737 mmHg 37%
    03:00 +21°C° 0 mm 1 mps 737 mmHg 39%
    04:00 +20°C° 0 mm 1 mps 737 mmHg 40%
    05:00 +20°C° 0 mm 1 mps 737 mmHg 42%
    06:00 +22°C° 0 mm 1 mps 737 mmHg 39%
    07:00 +24°C° 0 mm 1 mps 738 mmHg 36%
    08:00 +24°C° 0 mm 0 mps 738 mmHg 33%
    09:00 +28°C° 0 mm 1 mps 739 mmHg 28%
    10:00 +31°C° 0 mm 2 mps 739 mmHg 24%
    11:00 +34°C° 0 mm 2 mps 739 mmHg 20%
    12:00 +35°C° 0 mm 3 mps 738 mmHg 19%
    13:00 +36°C° 0 mm 3 mps 738 mmHg 18%
    14:00 +37°C° 0 mm 3 mps 738 mmHg 16%
    15:00 +36°C° 0 mm 3 mps 738 mmHg 18%
    16:00 +36°C° 0 mm 4 mps 737 mmHg 19%
    17:00 +35°C° 0 mm 4 mps 737 mmHg 20%
    18:00 +32°C° 0 mm 4 mps 737 mmHg 25%
    19:00 +29°C° 0 mm 4 mps 738 mmHg 31%
    20:00 +26°C° 0 mm 4 mps 738 mmHg 36%
    21:00 +25°C° 0 mm 3 mps 738 mmHg 36%
    22:00 +24°C° 0 mm 3 mps 738 mmHg 36%
    23:00 +24°C° 0 mm 2 mps 738 mmHg 36%

    6 April, Monday

    Time Temperature Precipitation Wind Pressure Humidity
    00:00 +23°C° 0 mm 2 mps 737 mmHg 38%
    01:00 +21°C° 0 mm 2 mps 737 mmHg 39%
    02:00 +21°C° 0 mm 2 mps 737 mmHg 41%
    03:00 +20°C° 0 mm 2 mps 736 mmHg 42%
    04:00 +20°C° 0 mm 2 mps 736 mmHg 42%
    05:00 +20°C° 0 mm 2 mps 736 mmHg 42%
    06:00 +23°C° 0 mm 2 mps 736 mmHg 38%
    07:00 +25°C° 0 mm 2 mps 737 mmHg 33%
    08:00 +27°C° 0 mm 2 mps 737 mmHg 29%
    09:00 +29°C° 0 mm 2 mps 737 mmHg 25%
    10:00 +32°C° 0 mm 2 mps 738 mmHg 21%
    11:00 +35°C° 0 mm 2 mps 738 mmHg 18%
    12:00 +36°C° 0 mm 3 mps 737 mmHg 17%
    13:00 +37°C° 0 mm 4 mps 737 mmHg 16%
    14:00 +38°C° 0 mm 4 mps 736 mmHg 15%
    15:00 +37°C° 0 mm 4 mps 736 mmHg 17%
    16:00 +36°C° 0 mm 4 mps 735 mmHg 19%
    17:00 +35°C° 0 mm 4 mps 734 mmHg 20%
    18:00 +33°C° 0 mm 4 mps 734 mmHg 25%
    19:00 +29°C° 0 mm 3 mps 734 mmHg 29%
    20:00 +27°C° 0 mm 3 mps 734 mmHg 33%
    21:00 +26°C° 0 mm 3 mps 735 mmHg 34%
    22:00 +26°C° 0 mm 3 mps 735 mmHg 34%
    23:00 +25°C° 0 mm 4 mps 735 mmHg 35%

    7 April, Tuesday

    Time Temperature Precipitation Wind Pressure Humidity
    00:00 +25°C° 0.1 mm 4 mps 734 mmHg 37%
    01:00 +25°C° 0.1 mm 5 mps 734 mmHg 40%
    02:00 +23°C° 0.1 mm 6 mps 734 mmHg 42%
    03:00 +23°C° 0 mm 6 mps 733 mmHg 41%
    04:00 +23°C° 0 mm 5 mps 733 mmHg 40%
    05:00 +23°C° 0 mm 5 mps 733 mmHg 39%
    06:00 +26°C° 0.1 mm 5 mps 733 mmHg 36%
    07:00 +27°C° 0.1 mm 4 mps 733 mmHg 32%
    08:00 +28°C° 0.1 mm 4 mps 734 mmHg 28%
    09:00 +30°C° 0 mm 3 mps 734 mmHg 25%
    10:00 +33°C° 0 mm 3 mps 734 mmHg 21%
    11:00 +35°C° 0 mm 2 mps 733 mmHg 17%
    12:00 +36°C° 0 mm 3 mps 733 mmHg 16%
    13:00 +37°C° 0 mm 3 mps 732 mmHg 15%
    14:00 +38°C° 0 mm 3 mps 732 mmHg 14%
    15:00 +37°C° 0 mm 5 mps 731 mmHg 15%
    16:00 +36°C° 0 mm 6 mps 731 mmHg 17%
    17:00 +35°C° 0 mm 7 mps 730 mmHg 18%
    18:00 +33°C° 0 mm 5 mps 731 mmHg 21%
    19:00 +30°C° 0 mm 3 mps 732 mmHg 24%
    20:00 +28°C° 0 mm 2 mps 732 mmHg 27%
    21:00 +28°C° 0 mm 3 mps 732 mmHg 26%
    22:00 +29°C° 0 mm 4 mps 733 mmHg 25%
    23:00 +29°C° 0 mm 5 mps 733 mmHg 24%
    Show more